1496674800.57,9896,22.38,73976.5,13.21,5.23,5.23,0,*72
1496674801.77,9897,22.38,73976.5,13.21,5.33,5.29,0,*78
1496674803.0,9898,22.44,73980.5,13.23,5.81,5.93,0,*7D
1496674804.18,9899,22.44,73978.5,13.23,5.99,5.99,0,*7F
1496674805.39,9900,22.44,73978.3,13.21,6.03,6.03,0,*7C
1496674806.57,9901,22.44,73976.8,13.23,5.95,5.95,0,*7F
1496674807.8,9902,22.38,73980.5,13.25,5.73,5.81,0,*77
1496674808.99,9903,22.38,73978.3,13.25,6.03,6.03,0,*7B
1496674810.16,9904,22.44,73982.5,13.25,5.37,5.37,0,*7C
1496674811.41,9905,22.44,73980.5,13.27,4.93,4.79,0,*7B
1496674812.58,9906,22.44,73980.3,13.25,5.45,5.45,0,*7E
1496674813.78,9907,22.38,73978.5,13.27,5.95,5.99,0,*71
1496674814.99,9908,22.38,73978.8,13.25,5.93,5.95,0,*76
1496674816.19,9909,22.44,73982.0,13.25,5.85,5.95,0,*70
1496674817.39,9910,22.38,73976.8,13.25,6.17,6.29,0,*74
1496674818.63,9911,22.38,73978.5,13.27,6.53,6.57,0,*7E
1496674819.85,9912,22.38,73980.8,13.31,6.33,6.53,0,*78
1496674821.11,9913,22.38,73980.0,13.31,6.51,6.61,0,*7C
1496674822.29,9914,22.38,73976.8,13.33,6.93,6.97,0,*7E
1496674823.51,9915,22.38,73978.3,13.33,6.65,6.65,0,*7B
1496674824.71,9916,22.44,73982.3,13.35,5.95,5.99,0,*72
1496674825.94,9917,22.44,73980.5,13.35,6.11,6.17,0,*79
1496674827.16,9918,22.44,73980.5,13.33,6.39,6.51,0,*78
1496674828.39,9919,22.44,73980.0,13.41,6.47,6.57,0,*73
1496674829.62,9920,22.44,73980.8,13.41,6.39,6.51,0,*76
1496674830.84,9921,22.38,73980.5,13.41,6.39,6.57,0,*71
1496674832.08,9922,22.44,73982.0,13.43,6.39,6.61,0,*75
1496674833.29,9923,22.38,73976.8,13.45,6.53,6.73,0,*7D
1496674834.51,9924,22.38,73978.3,13.45,6.39,6.61,0,*75
1496674835.71,9925,22.44,73980.5,13.49,6.25,6.61,0,*75
1496674836.93,9926,22.38,73978.3,13.51,6.61,7.01,0,*78
1496674838.15,9927,22.44,73976.5,13.51,6.43,6.83,0,*72
1496674839.37,9928,22.38,73976.5,13.51,6.43,6.83,0,*7D
1496674840.6,9929,22.44,73978.5,13.55,5.95,6.51,0,*7F
1496674841.82,9930,22.38,73978.0,13.55,5.99,6.53,0,*79
1496674843.05,9931,22.38,73980.3,13.57,5.85,6.29,0,*7A
1496674844.26,9932,22.44,73982.8,13.59,5.77,6.13,0,*73
1496674845.46,9933,22.44,73980.3,13.63,5.45,5.81,0,*72
1496674846.65,9934,22.44,73980.3,13.63,5.37,5.77,0,*79
1496674847.86,9935,22.44,73980.5,13.63,5.95,6.35,0,*75
1496674849.03,9936,22.44,73978.8,13.63,6.07,6.25,0,*7F
1496674850.24,9937,22.44,73978.3,13.63,6.03,6.17,0,*7B
1496674851.47,9938,22.44,73978.0,13.69,6.33,6.53,0,*7D
1496674852.68,9939,22.44,73978.8,13.67,5.73,5.95,0,*7C
1496674853.86,9940,22.38,73974.5,13.67,5.95,6.29,0,*7E
1496674855.09,9941,22.44,73978.3,13.69,6.47,6.83,0,*7D
1496674856.32,9942,22.44,73978.0,13.69,6.33,6.65,0,*75
1496674857.55,9943,22.44,73976.5,13.69,6.25,6.57,0,*72
1496674858.77,9944,22.44,73978.3,13.71,6.53,6.91,0,*77
1496674859.97,9945,22.44,73978.3,13.75,6.53,6.75,0,*78
1496674861.18,9946,22.38,73976.8,13.75,6.61,6.75,0,*7A
1496674862.38,9947,22.44,73976.3,13.75,5.71,5.85,0,*75
1496674863.59,9948,22.44,73982.0,13.77,6.03,6.21,0,*73
1496674864.8,9949,22.38,73978.5,13.79,6.21,6.35,0,*79
1496674866.03,9950,22.38,73976.3,13.79,6.65,6.57,0,*75
1496674867.2,9951,22.38,73978.0,13.79,6.75,6.75,0,*75
1496674868.46,9952,22.38,73976.3,13.81,6.47,6.43,0,*75
1496674869.67,9953,22.38,73978.3,13.81,6.33,6.21,0,*73
1496674870.92,9954,22.44,73976.0,13.85,5.89,5.93,0,*78
1496674872.17,9955,22.38,73978.8,13.85,5.55,5.77,0,*72
1496674873.34,9956,22.38,73976.3,13.87,5.41,5.63,0,*73
1496674874.54,9957,22.44,73978.5,13.87,5.37,5.51,0,*72
1496674875.74,9958,22.44,73976.8,13.87,5.11,5.27,0,*78
1496674876.91,9959,22.44,73976.8,13.87,5.15,5.33,0,*78
1496674878.13,9960,22.44,73982.3,13.87,3.53,3.71,0,*76
1496674879.35,9961,22.44,73976.5,13.85,3.97,4.19,0,*74
1496674880.61,9962,22.44,73980.0,13.85,4.31,4.63,0,*71
1496674881.84,9963,22.44,73980.0,13.81,4.45,4.67,0,*73
1496674883.05,9964,22.38,73976.5,13.85,4.15,4.41,0,*71
1496674884.31,9965,22.44,73980.5,13.81,4.63,4.71,0,*76
1496674885.56,9966,22.38,73978.3,13.81,4.59,4.63,0,*7F
1496674886.82,9967,22.44,73978.3,13.81,4.71,4.79,0,*7F
1496674888.03,9968,22.38,73978.0,13.81,4.45,4.33,0,*79
1496674889.22,9969,22.44,73978.8,13.81,4.23,4.11,0,*78
1496674890.46,9970,22.44,73982.3,13.81,4.05,3.93,0,*79
1496674891.66,9971,22.38,73978.0,13.81,4.33,4.11,0,*70
1496674892.86,9972,22.44,73978.3,13.81,4.57,4.33,0,*71
1496674894.08,9973,22.44,73976.8,13.81,4.33,4.01,0,*73
1496674895.31,9974,22.44,73978.0,13.85,3.45,3.25,0,*77
1496674896.57,9975,22.44,73980.8,13.81,3.07,2.81,0,*7B
1496674897.78,9976,22.44,73980.3,13.79,2.81,2.61,0,*7E
1496674898.99,9977,22.44,73976.5,13.79,2.73,2.61,0,*72
1496674900.22,9978,22.44,73978.3,13.77,2.65,2.69,0,*7C
1496674901.45,9979,22.44,73976.8,13.79,2.13,2.51,0,*79
1496674902.7,9980,22.44,73978.8,13.77,1.85,2.25,0,*7E
1496674903.91,9981,22.44,73978.8,13.79,1.89,2.61,0,*7D
1496674905.15,9982,22.44,73976.5,13.77,0.59,1.43,0,*4F
1496674906.39,9983,22.44,73980.0,13.77,0.41,1.51,0,*44
1496674907.63,9984,22.44,73978.5,13.73,0.25,1.67,0,*40
1496674908.85,9985,22.44,73978.0,13.73,0.43,1.89,0,*41
1496674910.1,9986,22.44,73978.8,13.73,0.71,2.43,0,*46
1496674911.35,9987,22.44,73976.0,13.73,0.37,2.17,0,*44
1496674912.57,9988,22.44,73978.8,13.71,0.63,2.81,0,*47
1496674913.8,9989,22.44,73978.8,13.69,1.13,3.29,0,*7A
1496674915.07,9990,22.44,73976.0,13.69,1.17,3.45,0,*7C
1496674916.28,9991,22.44,73978.5,13.69,0.43,2.73,0,*49
1496674917.51,9992,22.44,73976.5,13.65,0.95,2.91,0,*41
1496674918.73,9993,22.44,73980.3,13.65,1.67,3.59,0,*79
1496674919.94,9994,22.44,73978.8,13.65,2.31,4.07,0,*72
1496674921.14,9995,22.44,73980.3,13.65,2.27,3.85,0,*79
1496674922.38,9996,22.44,73980.0,13.65,2.91,4.31,0,*7F
1496674923.56,9997,22.44,73978.5,13.63,3.25,4.41,0,*71
1496674924.76,9998,22.38,73978.3,13.63,2.89,3.81,0,*72
1496674925.94,9999,22.44,73980.0,13.59,3.29,4.23,0,*7E
1496674927.18,10000,22.44,73982.5,13.59,3.79,4.59,0,*47
1496674928.39,10001,22.44,73980.5,13.59,4.33,5.01,0,*43
1496674929.6,10002,22.44,73978.3,13.59,4.41,5.05,0,*41
1496674930.8,10003,22.44,73980.3,13.59,4.53,5.19,0,*4E
1496674932.02,10004,22.44,73978.3,13.59,4.59,5.23,0,*4A
1496674933.2,10005,22.44,73980.8,13.63,4.89,5.37,0,*4A
1496674934.38,10006,22.38,73976.8,13.59,4.85,5.41,0,*4D
1496674935.59,10007,22.44,73982.5,13.59,4.59,4.85,0,*44
1496674936.83,10008,22.44,73978.8,13.59,5.05,5.51,0,*4B
1496674938.03,10009,22.44,73982.3,13.63,5.45,5.89,0,*42
1496674939.22,10010,22.44,73980.3,13.63,5.67,6.03,0,*4B
1496674940.43,10011,22.44,73976.5,13.63,5.93,6.25,0,*45
1496674941.64,10012,22.44,73980.5,13.63,5.89,5.95,0,*45
1496674942.85,10013,22.44,73976.5,13.65,5.49,5.59,0,*4E
1496674944.07,10014,22.44,73976.8,13.65,5.11,5.15,0,*4C
1496674945.28,10015,22.44,73980.8,13.65,5.11,5.15,0,*4D
1496674946.51,10016,22.44,73976.5,13.65,5.27,5.37,0,*4B
1496674947.74,10017,22.44,73980.3,13.65,5.49,5.55,0,*46
1496674949.0,10018,22.44,73980.5,13.65,5.89,5.89,0,*44
1496674950.23,10019,22.44,73978.3,13.65,6.07,6.13,0,*40
1496674951.49,10020,22.44,73978.8,13.65,6.47,6.57,0,*4E
1496674952.72,10021,22.44,73978.0,13.67,6.51,6.61,0,*4F
1496674953.96,10022,22.44,73980.8,13.69,6.73,7.01,0,*45
1496674955.13,10023,22.44,73980.0,13.71,6.75,6.83,0,*40
1496674956.36,10024,22.38,73978.8,13.71,6.65,6.65,0,*4E
1496674957.54,10025,22.44,73978.8,13.75,7.01,7.09,0,*43
1496674958.73,10026,22.44,73980.3,13.75,6.97,7.09,0,*4E
1496674959.94,10027,22.44,73982.3,13.77,7.01,6.97,0,*45
1496674961.17,10028,22.44,73982.5,13.79,7.23,7.27,0,*4E
1496674962.38,10029,22.44,73980.8,13.81,7.45,7.37,0,*49
1496674963.6,10030,22.44,73982.0,13.85,7.29,7.29,0,*40
1496674964.77,10031,22.44,73982.5,13.87,7.41,7.33,0,*46
1496674965.97,10032,22.44,73982.8,13.87,7.11,7.09,0,*49
1496674967.17,10033,22.44,73980.8,13.89,7.33,7.23,0,*4E
1496674968.44,10034,22.44,73982.5,13.91,7.73,7.61,0,*42
1496674969.64,10035,22.44,73980.0,13.95,7.45,7.33,0,*45
1496674970.85,10036,22.44,73982.5,13.97,7.61,7.51,0,*46
1496674972.11,10037,22.44,73980.0,13.99,7.47,7.27,0,*4C
1496674973.33,10038,22.44,73982.3,13.99,7.01,6.87,0,*4A
1496674974.54,10039,22.44,73982.0,14.05,7.45,7.19,0,*4F
1496674975.74,10040,22.44,73980.5,14.05,6.65,6.29,0,*40
1496674976.95,10041,22.44,73980.8,14.05,6.39,5.95,0,*4C
1496674978.13,10042,22.44,73978.8,14.09,6.97,6.75,0,*4A
1496674979.36,10043,22.44,73980.8,14.11,7.69,7.37,0,*45
1496674980.56,10044,22.44,73982.5,14.13,7.97,7.83,0,*4E
1496674981.79,10045,22.44,73980.3,14.15,8.41,8.19,0,*41
1496674983.01,10046,22.44,73978.5,14.19,8.45,8.13,0,*40
1496674984.25,10047,22.44,73982.5,14.23,8.59,8.37,0,*43
1496674985.45,10048,22.44,73982.0,14.27,8.71,8.23,0,*47
1496674986.66,10049,22.44,73982.8,14.31,8.45,7.87,0,*47
1496674987.89,10050,22.44,73982.5,14.33,8.29,7.79,0,*46
1496674989.15,10051,22.44,73980.0,14.37,8.41,7.87,0,*4C
1496674990.36,10052,22.44,73978.3,14.39,8.45,7.77,0,*4A
1496674991.57,10053,22.44,73982.3,14.45,8.19,7.41,0,*4C
1496674992.79,10054,22.44,73980.0,14.45,7.51,6.69,0,*43
1496674993.99,10055,22.44,73978.5,14.49,7.33,6.21,0,*46
1496674995.23,10056,22.44,73980.0,14.49,7.87,6.73,0,*4D
1496674996.49,10057,22.44,73982.8,14.49,7.87,6.51,0,*4C
1496674997.72,10058,22.44,73980.8,14.55,7.47,5.99,0,*45
1496674998.96,10059,22.44,73980.3,14.59,7.55,5.93,0,*41
1496675000.19,10060,22.44,73980.3,14.59,7.41,5.93,0,*4E
1496675001.43,10061,22.44,73982.5,14.63,7.55,6.35,0,*4C
1496675002.65,10062,22.44,73982.8,14.63,7.15,6.07,0,*4A
1496675003.91,10063,22.44,73982.0,14.63,7.15,5.85,0,*42
1496675005.13,10064,22.44,73982.3,14.67,7.01,5.51,0,*4D
1496675006.37,10065,22.44,73982.3,14.67,6.25,4.59,0,*42
1496675007.56,10066,22.44,73982.5,14.67,5.71,4.27,0,*4A
1496675008.8,10067,22.44,73982.8,14.69,5.85,4.63,0,*4E
1496675010.04,10068,22.44,73976.8,14.71,6.07,5.01,0,*44
1496675011.29,10069,22.44,73980.8,14.75,5.77,5.05,0,*41
1496675012.54,10070,22.44,73980.3,14.75,5.51,4.97,0,*47
1496675013.75,10071,22.44,73980.3,14.75,5.67,5.41,0,*49
1496675014.96,10072,22.44,73982.0,14.75,5.67,5.37,0,*4B
1496675016.2,10073,22.44,73984.0,14.75,5.77,5.51,0,*4B
1496675017.41,10074,22.44,73982.0,14.75,5.59,5.29,0,*4F
1496675018.62,10075,22.44,73982.3,14.75,5.99,5.67,0,*48
1496675019.83,10076,22.44,73982.0,14.75,6.33,6.11,0,*4A
1496675021.05,10077,22.44,73980.0,14.77,6.47,6.21,0,*49
1496675022.27,10078,22.44,73980.5,14.75,5.77,5.49,0,*49
1496675023.5,10079,22.44,73980.5,14.71,6.17,5.95,0,*48
1496675024.74,10080,22.44,73982.8,14.75,6.43,6.21,0,*47
1496675025.99,10081,22.38,73978.5,14.75,6.53,6.17,0,*42
1496675027.22,10082,22.44,73980.0,14.75,6.29,5.89,0,*48
1496675028.46,10083,22.44,73982.8,14.75,6.43,6.11,0,*47
1496675029.67,10084,22.44,73980.8,14.77,6.57,6.33,0,*47
1496675030.87,10085,22.44,73980.3,14.77,6.83,6.57,0,*4D
1496675032.04,10086,22.44,73982.0,14.77,7.01,6.83,0,*4C
1496675033.24,10087,22.44,73980.3,14.79,7.09,6.83,0,*4B
1496675034.48,10088,22.44,73978.5,14.79,7.61,7.51,0,*44
1496675035.66,10089,22.44,73982.8,14.81,7.55,7.33,0,*41
1496675036.92,10090,22.44,73982.3,14.83,7.27,7.11,0,*4E
1496675038.13,10091,22.44,73980.5,14.87,7.59,7.29,0,*49
1496675039.34,10092,22.44,73978.3,14.89,7.65,7.51,0,*44
1496675040.57,10093,22.44,73982.3,14.91,8.01,7.65,0,*46
1496675041.77,10094,22.44,73980.0,14.93,7.23,6.79,0,*40
1496675042.98,10095,22.44,73978.5,14.93,8.01,7.47,0,*42
1496675044.18,10096,22.44,73982.5,14.95,8.09,7.37,0,*48
1496675045.39,10097,22.44,73980.0,15.01,8.45,7.73,0,*4D
1496675046.63,10098,22.44,73980.5,15.03,7.65,6.75,0,*4A
1496675047.86,10099,22.44,73978.3,15.03,7.41,6.51,0,*4B
1496675049.1,10100,22.44,73982.5,15.07,7.59,6.47,0,*40
1496675050.33,10101,22.44,73976.5,15.07,8.15,6.73,0,*41
1496675051.56,10102,22.44,73980.0,15.11,8.23,6.73,0,*40
1496675052.76,10103,22.44,73980.0,15.13,7.55,5.81,0,*43
1496675054.0,10104,22.44,73976.8,15.15,7.11,5.33,0,*4B
1496675055.23,10105,22.44,73980.5,15.15,7.33,5.51,0,*4E
1496675056.46,10106,22.44,73980.0,15.21,7.27,5.45,0,*4A
1496675057.7,10107,22.44,73978.0,15.21,7.47,5.37,0,*48
1496675058.91,10108,22.44,73982.0,15.23,7.01,5.01,0,*42
1496675060.11,10109,22.44,73980.3,15.27,6.21,4.37,0,*40
1496675061.32,10110,22.44,73978.3,15.27,6.75,5.27,0,*49
1496675062.57,10111,22.44,73978.3,15.25,7.11,5.73,0,*48
1496675063.77,10112,22.44,73976.5,15.27,7.01,5.73,0,*48
1496675065.0,10113,22.44,73978.5,15.31,7.11,5.81,0,*42
1496675066.24,10114,22.44,73980.8,15.31,6.73,5.27,0,*4C
1496675067.45,10115,22.44,73982.3,15.33,7.29,6.03,0,*44
1496675068.69,10116,22.44,73982.0,15.35,7.23,5.73,0,*4F
1496675069.88,10117,22.44,73980.8,15.35,5.51,4.11,0,*4C
1496675071.07,10118,22.44,73982.8,15.35,5.63,4.15,0,*46
1496675072.28,10119,22.44,73980.3,15.35,6.87,5.67,0,*4A
1496675073.47,10120,22.44,73976.8,15.35,6.97,5.63,0,*45
1496675074.7,10121,22.44,73976.5,15.37,6.07,4.59,0,*47
1496675075.91,10122,22.44,73976.0,15.35,4.81,3.15,0,*45
1496675077.11,10123,22.44,73982.8,15.35,5.15,3.53,0,*4A
1496675078.29,10124,22.44,73982.3,15.35,5.67,4.23,0,*48
1496675079.53,10125,22.44,73978.5,15.35,4.67,3.03,0,*4D
1496675080.75,10126,22.44,73978.3,15.31,4.67,3.53,0,*4F
1496675081.94,10127,22.44,73978.8,15.31,5.11,3.81,0,*41
1496675083.11,10128,22.44,73976.8,15.31,5.37,4.11,0,*44
1496675084.34,10129,22.44,73978.8,15.33,5.81,4.57,0,*48
1496675085.52,10130,22.44,73976.0,15.31,5.63,4.11,0,*4C
1496675086.75,10131,22.44,73982.8,15.33,7.55,5.93,0,*43
1496675087.95,10132,22.44,73978.3,15.33,7.09,5.37,0,*47
1496675089.16,10133,22.44,73978.8,15.37,5.99,4.27,0,*49
1496675090.4,10134,22.44,73978.8,15.37,6.33,4.97,0,*46
1496675091.63,10135,22.44,73982.3,15.37,6.87,5.63,0,*42
1496675092.87,10136,22.44,73978.3,15.39,7.61,6.47,0,*43
1496675094.05,10137,22.44,73978.3,15.39,7.51,6.33,0,*42
1496675095.28,10138,22.44,73976.8,15.45,8.15,6.91,0,*41
1496675096.49,10139,22.44,73980.0,15.47,8.79,7.15,0,*45
1496675097.72,10140,22.44,73980.0,15.51,9.25,7.19,0,*48
1496675098.95,10141,22.44,73982.3,15.55,8.83,6.57,0,*4B
1496675100.18,10142,22.44,73980.8,15.59,8.41,5.99,0,*4B
1496675101.37,10143,22.44,73982.0,15.61,8.09,5.67,0,*4C
1496675102.6,10144,22.44,73982.8,15.63,8.23,5.81,0,*49
1496675103.81,10145,22.44,73982.5,15.69,7.37,4.63,0,*45
1496675104.99,10146,22.44,73984.3,15.69,6.03,3.55,0,*42
1496675106.18,10147,22.44,73984.0,15.69,6.33,3.93,0,*4A
1496675107.39,10148,22.44,73984.0,15.69,6.57,4.33,0,*4A
1496675108.59,10149,22.44,73982.5,15.69,6.47,4.11,0,*4A
1496675109.8,10150,22.44,73980.8,15.71,6.25,3.81,0,*41
1496675111.0,10151,22.44,73986.0,15.73,5.27,2.65,0,*48
1496675112.18,10152,22.44,73982.3,15.73,5.11,2.61,0,*4A
1496675113.41,10153,22.44,73982.0,15.71,5.07,2.73,0,*4D
1496675114.58,10154,22.44,73986.0,15.73,4.53,2.27,0,*49
1496675115.76,10155,22.44,73984.8,15.73,4.27,1.79,0,*43
1496675116.99,10156,22.44,73984.8,15.75,4.11,1.25,0,*4A
1496675118.16,10157,22.44,73984.0,15.77,1.79,-0.81,0,*50
1496675119.4,10158,22.44,73984.0,15.75,-0.37,-2.47,0,*73
1496675120.59,10159,22.44,73982.3,15.73,0.13,-1.59,0,*53
1496675121.82,10160,22.44,73982.0,15.73,0.33,-2.03,0,*57
1496675123.03,10161,22.44,73984.3,15.73,-1.17,-3.51,0,*4A
1496675124.26,10162,22.44,73982.5,15.71,-1.29,-3.47,0,*41
1496675125.5,10163,22.44,73980.0,15.71,-2.83,-5.77,0,*46
1496675126.74,10164,22.44,73980.5,15.69,-2.71,-5.77,0,*45
1496675127.93,10165,22.44,73980.8,15.69,-3.95,-6.43,0,*4B
1496675129.15,10166,22.44,73982.8,15.67,-4.49,-6.31,0,*45
1496675130.41,10167,22.44,73980.3,15.67,-4.77,-5.65,0,*4B
1496675131.68,10168,22.44,73980.0,15.63,-4.69,-5.03,0,*4F
1496675132.89,10169,22.44,73978.8,15.61,-4.69,-4.57,0,*4C
1496675134.09,10170,22.44,73978.8,15.61,-4.45,-4.01,0,*49
1496675135.32,10171,22.44,73980.8,15.59,-3.91,-3.39,0,*41
1496675136.51,10172,22.44,73984.5,15.57,-3.15,-3.15,0,*4E
1496675137.73,10173,22.44,73982.8,15.57,-1.47,-2.23,0,*4E
1496675138.95,10174,22.44,73980.0,15.57,-0.69,-2.11,0,*75
1496675140.17,10175,22.44,73980.0,15.53,-0.89,-2.39,0,*74
1496675141.41,10176,22.44,73982.5,15.55,-0.85,-2.31,0,*75
1496675142.62,10177,22.44,73982.0,15.53,-1.01,-2.27,0,*48
1496675143.86,10178,22.44,73980.3,15.53,-0.85,-2.11,0,*7F
1496675145.07,10179,22.44,73982.0,15.53,-0.37,-1.01,0,*75
1496675146.26,10180,22.44,73982.3,15.53,-0.15,-0.73,0,*47
1496675147.5,10181,22.44,73978.8,15.53,-1.47,-2.03,0,*45
1496675148.68,10182,22.44,73978.5,15.49,-0.03,-0.45,0,*7C
1496675149.91,10183,22.44,73980.3,15.49,0.79,0.47,0,*42
1496675151.13,10184,22.44,73978.0,15.51,1.51,1.05,0,*40
1496675152.36,10185,22.44,73982.3,15.49,1.89,1.21,0,*4B
1496675153.59,10186,22.44,73978.8,15.49,0.71,0.21,0,*4F
1496675154.79,10187,22.44,73978.8,15.47,1.01,0.29,0,*7E
1496675156.04,10188,22.44,73976.3,15.45,0.91,0.51,0,*44
1496675157.25,10189,22.44,73976.5,15.47,2.01,1.83,0,*42
1496675158.45,10190,22.44,73976.8,15.47,2.43,2.31,0,*46
1496675159.63,10191,22.44,73976.8,15.47,1.75,1.75,0,*42
1496675160.83,10192,22.44,73976.0,15.47,2.09,1.75,0,*49
1496675162.07,10193,22.44,73980.0,15.47,2.59,2.25,0,*4B
1496675163.3,10194,22.44,73976.5,15.47,2.01,1.85,0,*48
1496675164.5,10195,22.44,73978.0,15.47,1.37,0.97,0,*7D
1496675165.74,10196,22.44,73976.5,15.47,1.29,0.79,0,*71
1496675166.95,10197,22.44,73980.0,15.47,0.75,0.29,0,*4D
1496675168.15,10198,22.44,73976.8,15.47,-1.79,-2.31,0,*44
1496675169.36,10199,22.44,73976.0,15.49,-2.43,-2.51,0,*47
1496675170.6,10200,22.44,73976.8,15.47,-1.09,-0.93,0,*7B
1496675171.8,10201,22.44,73976.3,15.47,-0.19,0.29,0,*66
1496675173.04,10202,22.44,73978.8,15.45,0.63,1.17,0,*7B
1496675174.27,10203,22.44,73978.5,15.47,1.71,2.25,0,*48
1496675175.5,10204,22.44,73974.3,15.49,1.63,1.63,0,*43
1496675176.75,10205,22.44,73976.8,15.51,1.33,0.95,0,*76
1496675178.01,10206,22.44,73980.3,15.51,2.25,1.85,0,*41
1496675179.27,10207,22.44,73978.3,15.51,3.45,2.77,0,*49
1496675180.5,10208,22.44,73978.3,15.51,1.79,0.29,0,*72
1496675181.72,10209,22.44,73972.0,15.53,1.17,-0.15,0,*5B
1496675182.91,10210,22.44,73974.0,15.53,1.05,-0.37,0,*50
1496675184.16,10211,22.44,73976.3,15.51,1.13,-0.15,0,*54
1496675185.38,10212,22.44,73974.8,15.49,0.79,-0.93,0,*6D
1496675186.59,10213,22.44,73972.0,15.49,0.83,-0.37,0,*67
1496675187.82,10214,22.44,73978.5,15.47,1.37,0.29,0,*72
1496675189.05,10215,22.44,73978.0,15.47,1.63,0.51,0,*7D
1496675190.25,10216,22.44,73980.5,15.47,1.47,0.43,0,*7B
1496675191.42,10217,22.44,73972.3,15.47,0.97,0.05,0,*74
1496675192.64,10218,22.44,73978.8,15.47,0.91,-0.41,0,*60
1496675193.82,10219,22.44,73974.8,15.47,-0.07,-1.79,0,*49
1496675195.09,10220,22.44,73972.8,15.45,-1.05,-2.55,0,*4F
1496675196.33,10221,22.44,73972.5,15.45,-0.81,-1.43,0,*77
1496675197.6,10222,22.44,73976.5,15.45,-0.97,-1.35,0,*72
1496675198.83,10223,22.44,73974.8,15.43,-0.97,-0.89,0,*43
1496675200.07,10224,22.44,73974.8,15.39,-1.01,-1.05,0,*42
1496675201.26,10225,22.44,73976.5,15.43,-1.63,-1.71,0,*49
1496675202.52,10226,22.44,73978.0,15.43,-1.99,-1.99,0,*49
1496675203.75,10227,22.44,73976.5,15.43,-1.01,-0.89,0,*79
1496675205.02,10228,22.44,73978.3,15.45,-2.47,-2.59,0,*4E
1496675206.28,10229,22.44,73976.5,15.45,-3.71,-4.01,0,*40
1496675207.5,10230,22.44,73976.3,15.45,-4.25,-4.65,0,*4C
1496675208.75,10231,22.44,73982.5,15.47,-5.89,-6.19,0,*41
1496675209.98,10232,22.44,73978.0,15.45,-7.39,-7.23,0,*41
1496675211.2,10233,22.44,73976.8,15.45,-10.23,-9.23,0,*73
1496675212.45,10234,22.44,73978.8,15.45,-10.63,-8.29,0,*7B
1496675213.67,10235,22.44,73976.5,15.43,-10.97,-7.65,0,*70
1496675214.93,10236,22.44,73978.8,15.39,-10.63,-7.43,0,*71
1496675216.15,10237,22.44,73982.0,15.43,-10.27,-7.31,0,*78
1496675217.4,10238,22.44,73978.8,15.43,-10.67,-7.39,0,*7B
1496675218.63,10239,22.44,73976.0,15.39,-10.97,-7.73,0,*76
1496675219.87,10240,22.44,73976.5,15.39,-12.79,-9.61,0,*77
1496675221.11,10241,22.44,73972.3,15.35,-12.83,-8.81,0,*70
1496675222.36,10242,22.44,73972.3,15.33,-12.29,-7.65,0,*70
1496675223.56,10243,22.44,73970.8,15.31,-11.19,-6.51,0,*75
1496675224.75,10244,22.44,73972.5,15.31,-11.19,-6.85,0,*7B
1496675226.0,10245,22.44,73974.8,15.31,-9.41,-5.61,0,*47
1496675227.25,10246,22.44,73972.5,15.31,-7.77,-4.89,0,*48
1496675228.52,10247,22.44,73974.8,15.29,-6.93,-4.69,0,*45
1496675229.76,10248,22.44,73974.3,15.27,-6.27,-5.11,0,*45
1496675230.98,10249,22.44,73976.8,15.27,-5.11,-4.61,0,*44
1496675232.22,10250,22.44,73978.5,15.29,-4.81,-4.33,0,*4D
1496675233.43,10251,22.5,73982.5,15.27,-6.27,-6.85,0,*43
1496675234.66,10252,22.44,73974.0,15.27,-8.07,-8.21,0,*4C
1496675235.9,10253,22.44,73974.3,15.25,-8.51,-8.75,0,*4D
1496675237.13,10254,22.44,73974.3,15.23,-9.15,-8.85,0,*42
1496675238.39,10255,22.44,73976.0,15.17,-7.31,-7.05,0,*4B
1496675239.66,10256,22.44,73978.8,15.17,-5.81,-5.61,0,*41
1496675240.93,10257,22.5,73976.8,15.15,-5.27,-5.65,0,*4A
1496675242.15,10258,22.44,73976.5,15.15,-3.35,-4.49,0,*4F
1496675243.37,10259,22.44,73976.5,15.13,-3.35,-4.73,0,*41
1496675244.62,10260,22.5,73980.8,15.15,-4.09,-6.19,0,*4B
1496675245.88,10261,22.44,73980.3,15.11,-5.27,-7.95,0,*46
1496675247.12,10262,22.44,73978.8,15.09,-5.11,-8.07,0,*4D
1496675248.34,10263,22.44,73982.0,15.09,-5.07,-7.83,0,*48
1496675249.56,10264,22.44,73974.8,15.05,-5.27,-8.89,0,*44
1496675250.78,10265,22.5,73978.0,15.07,-4.61,-8.25,0,*42
1496675251.97,10266,22.44,73978.5,15.05,-3.95,-6.73,0,*42
1496675253.19,10267,22.44,73980.3,15.05,-3.63,-6.09,0,*47
1496675254.38,10268,22.44,73976.5,15.05,-2.87,-4.99,0,*48
1496675255.65,10269,22.44,73980.5,15.07,-2.67,-4.81,0,*4C
1496675256.9,10270,22.44,73978.3,15.05,-3.47,-5.77,0,*4D
1496675258.14,10271,22.44,73976.5,15.07,-4.21,-6.93,0,*40
1496675259.39,10272,22.44,73978.3,15.05,-5.03,-7.01,0,*4A
1496675260.64,10273,22.44,73976.5,15.03,-5.27,-6.77,0,*4B
1496675261.84,10274,22.5,73976.5,15.05,-5.55,-6.59,0,*43
1496675263.06,10275,22.44,73978.3,15.01,-5.43,-5.85,0,*43
1496675264.31,10276,22.5,73976.8,15.01,-5.23,-5.11,0,*4B
1496675265.5,10277,22.44,73974.5,15.01,-4.41,-4.33,0,*4E
1496675266.72,10278,22.5,73972.0,14.99,-2.27,-2.23,0,*40
1496675267.93,10279,22.44,73970.8,14.99,-1.25,-1.17,0,*44
1496675269.17,10280,22.44,73972.3,14.99,-0.27,-0.37,0,*42
1496675270.38,10281,22.44,73972.3,14.99,-0.53,-1.29,0,*7E
1496675271.62,10282,22.5,73972.8,14.95,-0.93,-1.51,0,*72
1496675272.81,10283,22.44,73972.5,14.93,-0.19,-1.21,0,*70
1496675274.06,10284,22.44,73972.5,14.91,-1.33,-2.55,0,*4C
1496675275.31,10285,22.44,73972.3,14.87,-1.13,-2.19,0,*40
1496675276.53,10286,22.5,73976.5,14.85,-0.45,-2.07,0,*7C
1496675277.79,10287,22.44,73972.8,14.83,-2.11,-3.63,0,*4B
1496675279.06,10288,22.44,73976.3,14.79,-1.13,-2.63,0,*41
1496675280.28,10289,22.5,73976.8,14.77,-2.63,-4.33,0,*49
1496675281.49,10290,22.5,73970.0,14.75,-2.43,-3.95,0,*4A
1496675282.68,10291,22.44,73960.5,14.65,-1.79,-2.91,0,*45
1496675283.88,10292,22.5,73970.0,14.65,-0.37,-1.01,0,*77
1496675285.09,10293,22.5,73968.0,14.65,-0.53,-0.89,0,*45
1496675286.3,10294,22.44,73970.8,14.63,-0.53,-0.69,0,*4A
1496675287.52,10295,22.44,73970.0,14.63,1.51,1.75,0,*44
1496675288.76,10296,22.5,73972.0,14.61,1.97,1.97,0,*43
1496675290.02,10297,22.5,73970.3,14.63,1.17,1.29,0,*4D
1496675291.26,10298,22.5,73970.3,14.61,1.33,1.85,0,*40
1496675292.46,10299,22.44,73966.5,14.61,0.51,1.01,0,*78
1496675293.68,10300,22.44,73970.5,14.61,1.43,1.93,0,*40
1496675294.91,10301,22.44,73970.5,14.61,1.67,1.97,0,*43
1496675296.14,10302,22.44,73968.0,14.61,1.67,2.09,0,*44
1496675297.37,10303,22.5,73976.5,14.61,1.93,2.17,0,*41
1496675298.6,10304,22.5,73974.3,14.61,2.21,2.47,0,*49
1496675299.87,10305,22.44,73968.0,14.59,1.33,1.09,0,*4A
1496675301.1,10306,22.5,73972.5,14.59,2.27,2.21,0,*46
1496675302.35,10307,22.5,73978.3,14.59,2.21,2.09,0,*4B
1496675303.56,10308,22.5,73976.5,14.59,2.31,2.31,0,*4E
1496675304.78,10309,22.5,73972.5,14.57,1.43,1.43,0,*41
1496675305.95,10310,22.5,73974.0,14.57,1.41,1.41,0,*49
1496675307.19,10311,22.5,73972.8,14.55,1.01,1.17,0,*4D
1496675308.43,10312,22.5,73974.8,14.55,1.59,1.89,0,*44
1496675309.67,10313,22.5,73974.8,14.53,0.91,1.29,0,*7C
1496675310.9,10314,22.5,73974.0,14.53,1.67,2.13,0,*49
1496675312.12,10315,22.5,73970.5,14.53,1.29,1.75,0,*41
1496675313.32,10316,22.5,73968.3,14.47,1.71,2.31,0,*49
1496675314.54,10317,22.5,73966.0,14.47,1.43,1.93,0,*42
1496675315.73,10318,22.5,73970.0,14.47,0.87,1.41,0,*7B
1496675316.99,10319,22.5,73972.3,14.45,1.29,1.89,0,*49
1496675318.23,10320,22.44,73972.5,14.45,1.33,1.83,0,*42
1496675319.44,10321,22.5,73972.8,14.43,1.75,2.13,0,*4D
1496675320.69,10322,22.5,73972.0,14.41,2.21,2.43,0,*4B